Location: Cisewo
(53.3833°N, 14.9000°E)
Time: 03:42:58
(UTC+00:00)

NOAA 18 - Pass Details

Date: 20 September 2021
Orbit: 841 x 860 km, 99.0° (Epoch: 17 October)

Event Time Altitude Azimuth Distance (km) Brightness Sun altitude
Exits shadow 19:01:19 28° 94° (E) 1,553 6.1 -17.7°
Maximum altitude 19:03:04 34° 59° (ENE) 1,365 6.0 -18.0°
Drops below altitude 10° 19:07:57 10° 357° (N) 2,482 8.0 -18.6°
Sets 19:10:31 0° 348° (NNW) 3,425 9.0 -18.9°
